Rantoul, IL

8:10 AM CDT on June 23, 2017 (GMT -0500)
Rantoul

Weather History for KTIP - May, 2013

Change the Weather History Date:

Saturday, May 4, 2013

  Actual Average (KCMI) Record (KCMI)
Temperature  
Mean Temperature 60 °F -  
Max Temperature 65 °F 70 °F 82 °F (1999)
Min Temperature 55 °F 47 °F 30 °F (2005)
Degree Days  
Heating Degree Days 4    
Growing Degree Days 10 (Base 50)    
Moisture  
Dew Point 54 °F    
Average Humidity 80    
Maximum Humidity 92    
Minimum Humidity 56    
Precipitation  
Precipitation 0.09 in - - ()
Sea Level Pressure  
Sea Level Pressure 29.95 in    
Wind  
Wind Speed 10 mph (ESE)    
Max Wind Speed 16 mph    
Max Gust Speed 20 mph    
Visibility 10 miles    
Events Rain    
Averages and records for this station are not official NWS values.
T = Trace of Precipitation, MM = Missing Value Source: NWS Daily Summary

Daily Weather History Graph

Daily Weather History Graph

Search for Another Location

Airport or City:

Trip Planner

Search our weather history database for the weather conditions in past years. The results will help you decide how hot, cold, wet, or windy it might be!

Date:

Astronomy

May. 04, 2013 Rise Set
Actual Time 5:48 AM CDT 7:51 PM CDT
Civil Twilight 5:18 AM CDT 8:21 PM CDT
Nautical Twilight 4:41 AM CDT 8:57 PM CDT
Astronomical Twilight 4:02 AM CDT 9:37 PM CDT
Moon 2:47 AM CDT (5/4) 2:48 PM CDT (5/4)
Length of Visible Light 15h 02m
Length of Day
14h 03m
Waning Crescent, 27% of the Moon is Illuminated
May 4
Waning Crescent
May 9
New
May 17
First Quarter
May 24
Full
May 31
Last Quarter

Hourly Weather History & Observations

Time (CDT) Temp. Dew Point Humidity Pressure Visibility Wind Dir Wind Speed Gust Speed Precip Events Conditions
12:15 AM 62.2 °F 57.7 °F 85% 29.91 in 10.0 mi ESE 15.0 mph - 0.01 in Rain Light Rain
12:35 AM 61.9 °F 57.7 °F 86% 29.91 in 10.0 mi ESE 9.2 mph - 0.01 in   Light Drizzle
12:55 AM 61.7 °F 57.6 °F 86% 29.91 in 10.0 mi East 9.2 mph - 0.01 in Rain Light Rain
1:15 AM 61.9 °F 56.8 °F 84% 29.91 in 10.0 mi ESE 11.5 mph - N/A   Overcast
1:35 AM 62.1 °F 56.5 °F 82% 29.90 in 10.0 mi East 12.7 mph - N/A   Scattered Clouds
1:55 AM 62.1 °F 56.5 °F 82% 29.90 in 10.0 mi East 9.2 mph - N/A   Clear
2:15 AM 61.9 °F 56.7 °F 83% 29.90 in 10.0 mi ESE 8.1 mph - N/A   Mostly Cloudy
2:55 AM 62.1 °F 57.0 °F 84% 29.89 in 10.0 mi ESE 10.4 mph - N/A   Overcast
3:15 AM 62.1 °F 56.8 °F 83% 29.90 in 10.0 mi ESE 10.4 mph - N/A   Light Drizzle
3:35 AM 62.6 °F 56.5 °F 80% 29.90 in 10.0 mi East 11.5 mph 16.1 mph N/A   Scattered Clouds
3:55 AM 61.2 °F 56.8 °F 86% 29.89 in 10.0 mi East 9.2 mph - N/A   Clear
4:15 AM 60.8 °F 57.2 °F 88% 29.89 in 10.0 mi East 9.2 mph - N/A   Clear
4:35 AM 61.0 °F 57.2 °F 87% 29.89 in 10.0 mi East 9.2 mph - N/A   Clear
4:55 AM 61.7 °F 56.7 °F 84% 29.89 in 10.0 mi East 10.4 mph - N/A   Clear
5:15 AM 62.2 °F 56.1 °F 80% 29.89 in 10.0 mi ESE 10.4 mph - N/A   Clear
5:35 AM 62.4 °F 56.3 °F 80% 29.89 in 10.0 mi East 10.4 mph - N/A   Clear
5:55 AM 60.3 °F 56.3 °F 87% 29.90 in 10.0 mi East 5.8 mph - N/A   Clear
6:15 AM 60.3 °F 56.5 °F 87% 29.90 in 10.0 mi East 9.2 mph - N/A   Clear
6:55 AM 60.8 °F 56.3 °F 85% 29.91 in 10.0 mi East 9.2 mph - 0.01 in   Clear
7:15 AM 61.7 °F 54.5 °F 77% 29.91 in 10.0 mi East 9.2 mph - N/A   Clear
7:35 AM 62.8 °F 52.9 °F 70% 29.92 in 10.0 mi East 8.1 mph - N/A   Clear
7:55 AM 62.1 °F 54.7 °F 77% 29.92 in 10.0 mi East 11.5 mph - N/A   Clear
8:15 AM 61.5 °F 53.8 °F 76% 29.93 in 10.0 mi East 12.7 mph - N/A   Clear
8:35 AM 61.7 °F 51.8 °F 70% 29.94 in 10.0 mi East 11.5 mph - N/A   Clear
8:55 AM 62.6 °F 51.8 °F 68% 29.94 in 10.0 mi East 12.7 mph - N/A   Scattered Clouds
9:15 AM 64.0 °F 51.3 °F 63% 29.94 in 10.0 mi East 11.5 mph - N/A   Scattered Clouds
9:35 AM 64.6 °F 51.1 °F 62% 29.95 in 10.0 mi East 11.5 mph 17.3 mph N/A   Scattered Clouds
9:55 AM 64.6 °F 48.9 °F 57% 29.95 in 10.0 mi ESE 16.1 mph - N/A   Scattered Clouds
10:15 AM 65.3 °F 50.4 °F 58% 29.95 in 10.0 mi ESE 15.0 mph - N/A   Scattered Clouds
10:35 AM 65.7 °F 50.4 °F 58% 29.95 in 10.0 mi ESE 15.0 mph 18.4 mph N/A   Clear
10:55 AM 65.3 °F 49.1 °F 56% 29.95 in 10.0 mi SE 12.7 mph - N/A   Clear
11:15 AM 65.5 °F 50.7 °F 59% 29.95 in 10.0 mi SE 11.5 mph - N/A   Clear
11:35 AM 65.5 °F 50.2 °F 58% 29.95 in 10.0 mi SE 16.1 mph 19.6 mph N/A   Scattered Clouds
11:55 AM 64.4 °F 50.9 °F 62% 29.96 in 10.0 mi SSE 13.8 mph 19.6 mph N/A   Scattered Clouds
12:15 PM 62.1 °F 52.5 °F 71% 29.96 in 10.0 mi SSE 13.8 mph - N/A   Overcast
12:35 PM 60.3 °F 52.9 °F 77% 29.97 in 10.0 mi South 13.8 mph - N/A Rain Light Rain
12:55 PM 59.5 °F 53.8 °F 81% 29.97 in 10.0 mi SSE 11.5 mph - N/A Rain Light Rain
1:15 PM 59.5 °F 53.8 °F 81% 29.96 in 10.0 mi SSE 10.4 mph - N/A Rain Light Rain
1:35 PM 59.9 °F 54.1 °F 81% 29.97 in 10.0 mi SSE 9.2 mph - N/A Rain Light Rain
1:55 PM 59.4 °F 53.6 °F 81% 29.97 in 10.0 mi SE 9.2 mph - N/A Rain Rain
2:35 PM 59.0 °F 54.7 °F 86% 29.97 in 5.0 mi SE 9.2 mph - 0.02 in Rain Light Rain
2:55 PM 59.4 °F 55.4 °F 87% 29.98 in 7.0 mi SE 9.2 mph - 0.02 in Rain Light Rain
3:35 PM 60.8 °F 55.9 °F 84% 29.98 in 7.0 mi ESE 12.7 mph - 0.01 in Rain Light Rain
3:55 PM 59.9 °F 54.9 °F 83% 29.98 in 7.0 mi ESE 13.8 mph - 0.02 in Rain Light Rain
4:35 PM 59.5 °F 55.6 °F 87% 29.97 in 5.0 mi ESE 8.1 mph - 0.01 in   Light Drizzle
4:55 PM 60.4 °F 55.6 °F 84% 29.97 in 10.0 mi ESE 10.4 mph - 0.01 in   Mostly Cloudy
5:35 PM 60.4 °F 54.7 °F 81% 29.98 in 10.0 mi SE 12.7 mph - N/A   Mostly Cloudy
5:55 PM 60.3 °F 54.7 °F 82% 29.99 in 10.0 mi SE 10.4 mph - N/A   Mostly Cloudy
6:15 PM 59.9 °F 55.0 °F 84% 29.99 in 10.0 mi SSE 8.1 mph - N/A   Overcast
6:35 PM 59.9 °F 55.8 °F 86% 30.00 in 10.0 mi SSE 6.9 mph - N/A Rain Light Rain
6:55 PM 59.5 °F 55.8 °F 87% 30.00 in 10.0 mi SE 8.1 mph - N/A Rain Light Rain
7:15 PM 59.0 °F 54.3 °F 84% 30.01 in 10.0 mi SE 12.7 mph - 0.01 in Rain Light Rain
7:35 PM 58.5 °F 54.7 °F 87% 30.02 in 10.0 mi SSE 10.4 mph - 0.01 in   Drizzle
7:55 PM 58.1 °F 54.0 °F 86% 30.02 in 10.0 mi SSE 10.4 mph - 0.02 in   Drizzle
8:15 PM 57.4 °F 53.6 °F 87% 30.02 in 10.0 mi SE 8.1 mph - N/A   Overcast
8:35 PM 57.2 °F 53.1 °F 86% 30.02 in 10.0 mi SE 5.8 mph - N/A   Overcast
9:15 PM 57.2 °F 53.6 °F 88% 30.01 in 10.0 mi Calm Calm - N/A   Overcast
9:35 PM 56.8 °F 53.6 °F 89% 30.01 in 10.0 mi SW 3.5 mph - N/A   Overcast
9:55 PM 56.7 °F 53.8 °F 90% 30.01 in 10.0 mi Calm Calm - N/A   Overcast
10:15 PM 56.7 °F 53.4 °F 89% 30.01 in 10.0 mi Calm Calm - N/A   Mostly Cloudy
10:35 PM 56.5 °F 53.6 °F 90% 30.01 in 10.0 mi Calm Calm - N/A   Mostly Cloudy
10:55 PM 56.5 °F 53.8 °F 91% 30.02 in 10.0 mi Calm Calm - N/A   Overcast
11:15 PM 56.3 °F 53.8 °F 91% 30.02 in 10.0 mi Calm Calm - N/A   Overcast
11:35 PM 56.3 °F 53.6 °F 91% 30.02 in 10.0 mi Calm Calm - N/A   Mostly Cloudy
11:55 PM 55.8 °F 53.6 °F 92% 30.02 in 7.0 mi Calm Calm - N/A   Mostly Cloudy